Weather History for LHSN - March, 2013

Change the Weather History Date:

Friday, March 1, 2013

  Actual Average (LHBP) Record (LHBP)
Temperature  
Mean Temperature 36 °F -  
Max Temperature 41 °F 43 °F 57 °F (2008)
Min Temperature 30 °F 27 °F 10 °F (2005)
Degree Days  
Heating Degree Days 30    
Moisture  
Dew Point 33 °F    
Average Humidity 86    
Maximum Humidity 100    
Minimum Humidity 70    
Precipitation  
Precipitation 0.00 in - - ()
Sea Level Pressure  
Sea Level Pressure 30.07 in    
Wind  
Wind Speed 7 mph ()    
Max Wind Speed 11 mph    
Max Gust Speed -    
Visibility 3.4 miles    
Events Fog    
Averages and records for this station are not official NWS values.
T = Trace of Precipitation, MM = Missing Value Source: Averaged Metar Reports

Daily Weather History Graph

Daily Weather History Graph

Search for Another Location

Airport or City:

Trip Planner

Search our weather history database for the weather conditions in past years. The results will help you decide how hot, cold, wet, or windy it might be!

Date:

Astronomy

Mar. 01, 2013 Rise Set
Actual Time 6:19 AM CET 5:24 PM CET
Civil Twilight 5:48 AM CET 5:55 PM CET
Nautical Twilight 5:13 AM CET 6:30 PM CET
Astronomical Twilight 4:37 AM CET 7:05 PM CET
Moon 9:58 PM CET 7:36 AM CET
Length of Visible Light 12h 06m
Length of Day
11h 05m
Waning Gibbous, 85% of the Moon is Illuminated
Mar 1
Waning Gibbous
Mar 4
Last Quarter
Mar 11
New
Mar 19
First Quarter
Mar 27
Full

Hourly Weather History & Observations

Time (CET) Temp. Windchill Dew Point Humidity Pressure Visibility Wind Dir Wind Speed Gust Speed Precip Events Conditions
12:15 AM 33.8 °F 27.9 °F 32.0 °F 93% 30.18 in 3.7 mi SW 6.7 mph - N/A   Clear
12:45 AM 33.8 °F 27.9 °F 32.0 °F 93% 30.18 in 3.7 mi SW 6.7 mph - N/A   Clear
1:15 AM 33.8 °F 27.9 °F 32.0 °F 93% 30.18 in 3.1 mi SW 6.7 mph - N/A   Clear
1:45 AM 33.8 °F 27.9 °F 32.0 °F 93% 30.15 in 3.1 mi SW 6.7 mph - N/A   Clear
2:15 AM 32.0 °F 25.7 °F 32.0 °F 100% 30.15 in 3.1 mi SW 6.7 mph - N/A   Clear
2:45 AM 33.8 °F 27.9 °F 32.0 °F 93% 30.12 in 3.1 mi SW 6.7 mph - N/A   Clear
3:15 AM 33.8 °F 27.9 °F 32.0 °F 93% 30.12 in 2.5 mi SW 6.7 mph - N/A   Clear
4:15 AM 32.0 °F 25.7 °F 32.0 °F 100% 30.12 in 1.9 mi SW 6.7 mph - N/A   Clear
4:45 AM 32.0 °F 25.7 °F 32.0 °F 100% 30.09 in 0.9 mi SW 6.7 mph - N/A   Clear
4:49 AM 32.0 °F 25.7 °F 30.2 °F 93% 30.09 in 0.5 mi SW 6.7 mph - N/A Fog Fog
5:15 AM 32.0 °F 27.6 °F 30.2 °F 93% 30.09 in 0.4 mi SW 4.5 mph - N/A Fog Light Freezing Fog
5:45 AM - - - N/A% - 0.9 mi SW 6.7 mph - N/A   Mostly Cloudy
6:15 AM 30.2 °F 23.5 °F 30.2 °F 100% 30.09 in 0.1 mi SW 6.7 mph - N/A Fog Light Freezing Fog
6:45 AM 30.2 °F 23.5 °F 30.2 °F 100% 30.09 in 0.1 mi SW 6.7 mph - N/A Fog Light Freezing Fog
7:15 AM 32.0 °F 24.3 °F 30.2 °F 93% 30.09 in 0.1 mi SW 8.9 mph - N/A Fog Light Freezing Fog
7:45 AM 32.0 °F 25.7 °F 30.2 °F 93% 30.12 in 0.1 mi WSW 6.7 mph - N/A Fog Light Freezing Fog
8:15 AM 32.0 °F 25.7 °F 32.0 °F 100% 30.09 in 0.5 mi WSW 6.7 mph - N/A Fog Fog
8:45 AM - - - N/A% - 0.9 mi SW 6.7 mph - N/A   Overcast
9:15 AM 33.8 °F 26.5 °F 33.8 °F 100% 30.09 in 1.2 mi WSW 8.9 mph - N/A   Overcast
9:45 AM 35.6 °F 28.7 °F 35.6 °F 100% 30.09 in 1.9 mi WSW 8.9 mph - N/A   Overcast
10:15 AM 37.4 °F 33.9 °F 35.6 °F 93% 30.09 in 2.5 mi WSW 4.5 mph - N/A   Overcast
10:45 AM 39.2 °F 34.4 °F 35.6 °F 87% 30.06 in 2.5 mi WSW 6.7 mph - N/A   Overcast
11:15 AM 41.0 °F 35.4 °F 35.6 °F 81% 30.06 in 3.1 mi SW 8.9 mph - N/A   Overcast
11:45 AM - - - N/A% - 5.0 mi SW 6.7 mph - N/A   Overcast
12:15 PM 41.0 °F 35.4 °F 35.6 °F 81% 30.06 in 3.7 mi West 8.9 mph - N/A   Overcast
12:45 PM 41.0 °F 35.4 °F 35.6 °F 81% 30.04 in 3.7 mi West 8.9 mph - N/A   Overcast
1:15 PM 41.0 °F 34.4 °F 35.6 °F 81% 30.04 in 3.7 mi West 11.2 mph - N/A   Overcast
1:45 PM 41.0 °F 35.4 °F 35.6 °F 81% 30.04 in 3.7 mi West 8.9 mph - N/A   Overcast
2:15 PM 41.0 °F 36.5 °F 35.6 °F 81% 30.04 in 3.7 mi WSW 6.7 mph - N/A   Overcast
2:45 PM - - - N/A% - 5.0 mi WNW 8.9 mph - N/A   Overcast
3:15 PM 41.0 °F 35.4 °F 33.8 °F 76% 30.01 in 3.7 mi West 8.9 mph - N/A   Overcast
3:45 PM 41.0 °F 35.4 °F 33.8 °F 76% 30.01 in 5.0 mi West 8.9 mph - N/A   Overcast
4:15 PM 41.0 °F 34.4 °F 32.0 °F 70% 30.01 in 5.0 mi West 11.2 mph - N/A   Overcast
4:45 PM 41.0 °F 34.4 °F 32.0 °F 70% 30.01 in 5.0 mi West 11.2 mph - N/A   Overcast
5:15 PM 39.2 °F 33.1 °F 32.0 °F 75% 30.01 in 5.0 mi West 8.9 mph - N/A   Overcast
5:45 PM - - - N/A% - 5.0 mi WNW 8.9 mph - N/A   Overcast
6:15 PM 39.2 °F 33.1 °F 32.0 °F 75% 30.01 in 6.2 mi West 8.9 mph - N/A   Overcast
6:45 PM 39.2 °F 33.1 °F 32.0 °F 75% 30.01 in 6.2 mi West 8.9 mph - N/A   Overcast
7:15 PM 39.2 °F 34.4 °F 32.0 °F 75% 30.01 in 6.2 mi West 6.7 mph - N/A   Overcast
7:45 PM 39.2 °F 34.4 °F 32.0 °F 75% 30.01 in 6.2 mi West 6.7 mph - N/A   Overcast
8:15 PM 39.2 °F 34.4 °F 32.0 °F 75% 30.01 in 6.2 mi West 6.7 mph - N/A   Overcast
8:45 PM - - - N/A% - 5.0 mi WNW 8.9 mph - N/A   Overcast
9:15 PM 39.2 °F 33.1 °F 32.0 °F 75% 30.01 in 5.0 mi West 8.9 mph - N/A   Overcast
9:45 PM 39.2 °F 34.4 °F 32.0 °F 75% 30.01 in 5.0 mi West 6.7 mph - N/A   Overcast
10:15 PM 39.2 °F 34.4 °F 32.0 °F 75% 30.01 in 5.0 mi WNW 6.7 mph - N/A   Mostly Cloudy
10:45 PM 37.4 °F 32.2 °F 32.0 °F 81% 30.01 in 5.0 mi WNW 6.7 mph - N/A   Mostly Cloudy
11:15 PM 37.4 °F 32.2 °F 30.2 °F 75% 30.01 in 5.0 mi WNW 6.7 mph - N/A   Mostly Cloudy
11:45 PM - - - N/A% - 5.0 mi North - - N/A   Scattered Clouds